Change the Weather History Date:

Sunday, October 9, 2011

  Actual Average Record
Temperature  
Mean Temperature 65 °F 68 °F  
Max Temperature 70 °F 79 °F 93 °F (1972)
Min Temperature 59 °F 56 °F 39 °F (2000)
Degree Days  
Heating Degree Days 0 2  
Month to date heating degree days 0 14  
Since 1 July heating degree days 0 25  
Cooling Degree Days 0 5  
Month to date cooling degree days 69 51  
Year to date cooling degree days 3411 2322  
Growing Degree Days 15 (Base 50)    
Moisture  
Dew Point 60 °F    
Average Humidity 85    
Maximum Humidity 100    
Minimum Humidity 70    
Precipitation  
Precipitation 0.24 in 0.10 in 1.52 in (1939)
Month to date precipitation 3.81 0.80  
Year to date precipitation 14.44 20.00  
Sea Level Pressure  
Sea Level Pressure 30.00 in    
Wind  
Wind Speed 7 mph (ENE)    
Max Wind Speed 30 mph    
Max Gust Speed 36 mph    
Visibility 10 miles    
Events Rain    
T = Trace of Precipitation, MM = Missing Value Source: NWS Daily Summary

Daily Weather History Graph

Daily Weather History Graph

Search for Another Location

Airport or City:

Trip Planner

Search our weather history database for the weather conditions in past years. The results will help you decide how hot, cold, wet, or windy it might be!

Date:

Astronomy

Oct. 09, 2011 Rise Set
Actual Time 7:38 AM CDT 7:13 PM CDT
Civil Twilight 7:13 AM CDT 7:38 PM CDT
Nautical Twilight 6:44 AM CDT 8:06 PM CDT
Astronomical Twilight 6:16 AM CDT 8:34 PM CDT
Moon 5:47 PM CDT (10/9) 5:29 AM CDT (10/9)
Length of Visible Light 12h 24m
Length of Day
11h 35m
Waxing Gibbous, 95% of the Moon is Illuminated
Oct 9
Waxing Gibbous
Oct 11
Full
Oct 19
Last Quarter
Oct 26
New
Nov 2
First Quarter

Hourly Weather History & Observations

Time (CDT) Temp. Dew Point Humidity Pressure Visibility Wind Dir Wind Speed Gust Speed Precip Events Conditions
12:52 AM 61.0 °F - N/A% 29.93 in 10.0 mi East 16.1 mph 21.9 mph 0.04 in   Overcast
1:52 AM 61.0 °F - N/A% 29.94 in 10.0 mi East 15.0 mph 21.9 mph 0.00 in   Scattered Clouds
2:52 AM 61.0 °F - N/A% 29.91 in 10.0 mi ENE 5.8 mph - N/A   Mostly Cloudy
3:52 AM 62.1 °F - N/A% 29.92 in 10.0 mi West 11.5 mph 16.1 mph 0.00 in Rain Light Rain
4:07 AM 62.6 °F - N/A% 29.93 in 10.0 mi East 4.6 mph - 0.00 in   Overcast
4:52 AM 61.0 °F 61.0 °F 100% 29.93 in 10.0 mi West 6.9 mph - 0.00 in   Partly Cloudy
5:42 AM 60.8 °F 60.8 °F 100% 30.02 in 10.0 mi West 4.6 mph - N/A   Mostly Cloudy
5:52 AM 61.0 °F 60.1 °F 97% 29.98 in 10.0 mi WSW 4.6 mph - 0.00 in Rain Light Rain
6:24 AM 60.8 °F 60.8 °F 100% 30.03 in 6.0 mi ENE 3.5 mph - 0.03 in Rain Rain
6:52 AM 61.0 °F 61.0 °F 100% 30.00 in 4.0 mi East 6.9 mph - 0.11 in Rain Rain
7:52 AM 60.1 °F 60.1 °F 100% 30.01 in 10.0 mi East 6.9 mph - 0.09 in Rain Light Rain
8:46 AM 60.8 °F 60.8 °F 100% 30.04 in 7.0 mi East 10.4 mph - 0.04 in Rain Light Rain
8:52 AM 61.0 °F 61.0 °F 100% 30.00 in 10.0 mi East 9.2 mph - 0.04 in Rain Light Rain
9:31 AM 60.8 °F 60.8 °F 100% 30.01 in 10.0 mi East 17.3 mph - 0.00 in   Mostly Cloudy
9:52 AM 61.0 °F 61.0 °F 100% 29.96 in 10.0 mi East 18.4 mph - 0.00 in   Mostly Cloudy
10:03 AM 60.8 °F 60.8 °F 100% 30.01 in 10.0 mi East 16.1 mph 26.5 mph N/A   Mostly Cloudy
10:52 AM 61.0 °F 61.0 °F 100% 30.01 in 10.0 mi ESE 10.4 mph - N/A   Overcast
11:47 AM 62.6 °F 60.8 °F 94% 30.06 in 10.0 mi ESE 3.5 mph - N/A   Overcast
11:52 AM 63.0 °F 60.1 °F 90% 30.02 in 10.0 mi ESE 4.6 mph - N/A   Overcast
12:52 PM 63.0 °F 60.1 °F 90% 30.02 in 10.0 mi SE 3.5 mph - N/A   Overcast
1:52 PM 64.0 °F 61.0 °F 90% 30.00 in 10.0 mi North 4.6 mph - 0.00 in   Overcast
2:10 PM 64.4 °F 62.6 °F 94% 30.04 in 10.0 mi North 5.8 mph - N/A   Overcast
2:40 PM 64.4 °F 62.6 °F 94% 30.03 in 10.0 mi NE 6.9 mph - N/A   Overcast
2:52 PM 66.0 °F 61.0 °F 84% 29.98 in 10.0 mi NE 5.8 mph - N/A   Mostly Cloudy
3:25 PM 66.2 °F 60.8 °F 83% 30.02 in 10.0 mi North 4.6 mph - N/A   Overcast
3:34 PM 66.2 °F 60.8 °F 83% 30.02 in 10.0 mi NNE 6.9 mph - N/A   Overcast
3:52 PM 66.9 °F 60.1 °F 79% 29.97 in 10.0 mi NNE 3.5 mph - N/A   Overcast
4:52 PM 69.1 °F 60.1 °F 73% 29.96 in 10.0 mi NE 5.8 mph - N/A   Mostly Cloudy
5:49 PM 69.8 °F 59.0 °F 68% 30.02 in 10.0 mi Calm Calm - N/A   Mostly Cloudy
5:52 PM 70.0 °F 59.0 °F 68% 29.97 in 10.0 mi NNE 4.6 mph - N/A   Mostly Cloudy
6:52 PM 68.0 °F 59.0 °F 73% 29.98 in 10.0 mi NNE 5.8 mph - N/A   Scattered Clouds
7:52 PM 66.0 °F 59.0 °F 78% 29.99 in 10.0 mi NE 3.5 mph - N/A   Mostly Cloudy
8:52 PM 64.9 °F 59.0 °F 81% 30.01 in 10.0 mi ENE 3.5 mph - N/A   Overcast
9:52 PM 64.9 °F 57.9 °F 78% 30.03 in 10.0 mi ENE 4.6 mph - N/A   Overcast
10:52 PM 64.0 °F 59.0 °F 84% 30.04 in 10.0 mi East 4.6 mph - N/A   Scattered Clouds
11:52 PM 62.1 °F 59.0 °F 90% 30.05 in 10.0 mi North - - N/A   Clear